TimeEDT,TemperatureF,Dew PointF,Humidity,Sea Level PressureIn,VisibilityMPH,Wind Direction,Wind SpeedMPH,Gust SpeedMPH,PrecipitationIn,Events,Conditions,WindDirDegrees,DateUTC
12:54 AM,53.1,46.9,80,30.24,10.0,West,3.5,-,N/A,,Clear,280,2012-09-11 04:54:00
1:54 AM,53.1,46.0,77,30.25,10.0,Calm,Calm,-,N/A,,Clear,0,2012-09-11 05:54:00
2:54 AM,53.1,46.0,77,30.24,10.0,Calm,Calm,-,N/A,,Clear,0,2012-09-11 06:54:00
3:54 AM,51.1,45.0,80,30.25,10.0,Calm,Calm,-,N/A,,Clear,0,2012-09-11 07:54:00
4:54 AM,51.1,45.0,80,30.27,10.0,Calm,Calm,-,N/A,,Clear,0,2012-09-11 08:54:00
5:54 AM,48.9,45.0,86,30.28,10.0,Calm,Calm,-,N/A,,Clear,0,2012-09-11 09:54:00
6:54 AM,48.9,45.0,86,30.31,10.0,Calm,Calm,-,N/A,,Clear,0,2012-09-11 10:54:00
7:54 AM,52.0,46.0,80,30.34,10.0,Calm,Calm,-,N/A,,Clear,0,2012-09-11 11:54:00
8:54 AM,57.0,48.0,72,30.35,10.0,Calm,Calm,-,N/A,,Clear,0,2012-09-11 12:54:00
9:54 AM,62.1,48.9,62,30.35,10.0,Calm,Calm,-,N/A,,Clear,0,2012-09-11 13:54:00
10:54 AM,66.0,46.9,50,30.36,10.0,Calm,Calm,-,N/A,,Clear,0,2012-09-11 14:54:00
11:54 AM,69.1,46.0,44,30.34,10.0,SE,4.6,-,N/A,,Clear,140,2012-09-11 15:54:00
12:54 PM,72.0,46.9,41,30.33,10.0,Variable,3.5,-,N/A,,Partly Cloudy,0,2012-09-11 16:54:00
1:54 PM,73.9,48.0,40,30.30,10.0,Variable,5.8,-,N/A,,Partly Cloudy,0,2012-09-11 17:54:00
2:54 PM,75.0,48.9,40,30.28,10.0,South,8.1,-,N/A,,Partly Cloudy,190,2012-09-11 18:54:00
3:54 PM,75.9,50.0,40,30.27,10.0,South,9.2,-,N/A,,Partly Cloudy,170,2012-09-11 19:54:00
4:54 PM,75.9,50.0,40,30.26,10.0,Variable,3.5,-,N/A,,Partly Cloudy,0,2012-09-11 20:54:00
5:54 PM,75.0,51.1,43,30.27,10.0,SE,9.2,-,N/A,,Partly Cloudy,130,2012-09-11 21:54:00
6:54 PM,73.0,51.1,46,30.27,10.0,ESE,10.4,-,N/A,,Clear,120,2012-09-11 22:54:00
7:54 PM,68.0,52.0,56,30.28,10.0,SE,6.9,-,N/A,,Clear,130,2012-09-11 23:54:00
8:54 PM,68.0,52.0,56,30.30,10.0,Calm,Calm,-,N/A,,Clear,0,2012-09-12 00:54:00
9:54 PM,66.9,52.0,59,30.30,10.0,SE,3.5,-,N/A,,Clear,130,2012-09-12 01:54:00
10:54 PM,63.0,53.1,70,30.32,10.0,Calm,Calm,-,N/A,,Clear,0,2012-09-12 02:54:00
11:54 PM,61.0,55.0,81,30.33,10.0,Calm,Calm,-,N/A,,Clear,0,2012-09-12 03:54:00